Kaltag, AK

4:20 AM AKDT on August 28, 2016 (GMT -0800)
Kaltag

Weather History for PAKV - May, 2013

Change the Weather History Date:

Wednesday, May 29, 2013

  Actual Average (PAGA) Record (PAGA)
Temperature  
Mean Temperature 60 °F -  
Max Temperature 79 °F 62 °F 81 °F (1974)
Min Temperature 43 °F 42 °F 32 °F (1976)
Degree Days  
Heating Degree Days 4    
Growing Degree Days 10 (Base 50)    
Moisture  
Dew Point 36 °F    
Average Humidity 42    
Maximum Humidity 76    
Minimum Humidity 20    
Precipitation  
Precipitation 0.00 in - - ()
Sea Level Pressure  
Sea Level Pressure 29.82 in    
Wind  
Wind Speed 4 mph (North)    
Max Wind Speed 7 mph    
Max Gust Speed -    
Visibility 10 miles    
Events      
Averages and records for this station are not official NWS values.
T = Trace of Precipitation, MM = Missing Value Source: NWS Daily Summary

Daily Weather History Graph

Daily Weather History Graph

Search for Another Location

Airport or City:

Trip Planner

Search our weather history database for the weather conditions in past years. The results will help you decide how hot, cold, wet, or windy it might be!

Date:

Astronomy

May. 29, 2013 Rise Set
Actual Time 4:33 AM AKDT 12:33 AM AKDT
Civil Twilight 3:04 AM AKDT 2:00 AM AKDT
Nautical Twilight Sun does not set Sun does not set
Astronomical Twilight Sun does not set Sun does not set
Moon 2:41 AM AKDT (5/29) 11:14 AM AKDT (5/29)
Length of Visible Light 22h 55m
Length of Day
19h 59m
Waning Gibbous, 71% of the Moon is Illuminated
May 29
Waning Gibbous
May 31
Last Quarter
Jun 8
New
Jun 16
First Quarter
Jun 23
Full

Hourly Weather History & Observations

Time (AKDT) Temp. Windchill Dew Point Humidity Pressure Visibility Wind Dir Wind Speed Gust Speed Precip Events Conditions
12:53 AM 55.9 °F - 39.9 °F 55% 29.83 in 10.0 mi SW 4.6 mph - N/A   Clear
1:53 AM 51.1 °F - 37.9 °F 61% 29.84 in 10.0 mi SW 4.6 mph - N/A   Clear
2:53 AM 46.9 °F - 37.0 °F 68% 29.85 in 10.0 mi SW 4.6 mph - N/A   Clear
3:53 AM 46.0 °F 43.9 °F 37.0 °F 71% 29.85 in 10.0 mi SW 4.6 mph - N/A   Clear
4:53 AM 44.1 °F 40.8 °F 36.0 °F 73% 29.86 in 10.0 mi SW 5.8 mph - N/A   Clear
5:53 AM 43.0 °F 39.5 °F 36.0 °F 76% 29.86 in 10.0 mi SW 5.8 mph - N/A   Clear
6:53 AM 45.0 °F 42.6 °F 37.0 °F 74% 29.86 in 10.0 mi SW 4.6 mph - N/A   Clear
7:53 AM 51.1 °F - 37.9 °F 61% 29.86 in 10.0 mi Calm Calm - N/A   Clear
8:53 AM 55.0 °F - 37.0 °F 51% 29.86 in 10.0 mi NNE 5.8 mph - N/A   Clear
9:53 AM 59.0 °F - 37.0 °F 44% 29.86 in 10.0 mi NNE 3.5 mph - N/A   Clear
10:53 AM 63.0 °F - 37.9 °F 40% 29.85 in 10.0 mi NNE 6.9 mph - N/A   Clear
11:53 AM 66.9 °F - 37.0 °F 33% 29.84 in 10.0 mi NNE 5.8 mph - N/A   Clear
12:53 PM 71.1 °F - 36.0 °F 28% 29.83 in 10.0 mi NNE 6.9 mph - N/A   Clear
1:53 PM 73.9 °F - 36.0 °F 25% 29.82 in 10.0 mi NE 5.8 mph - N/A   Clear
2:53 PM 75.0 °F - 36.0 °F 24% 29.81 in 10.0 mi NE 6.9 mph - N/A   Clear
3:53 PM 77.0 °F - 36.0 °F 23% 29.80 in 10.0 mi NE 6.9 mph - N/A   Clear
4:53 PM 78.1 °F - 35.1 °F 21% 29.78 in 10.0 mi Variable 5.8 mph - N/A   Clear
5:53 PM 77.0 °F - 35.1 °F 22% 29.78 in 10.0 mi Calm Calm - N/A   Clear
6:53 PM 78.1 °F - 34.0 °F 20% 29.78 in 10.0 mi Variable 3.5 mph - N/A   Clear
7:53 PM 75.0 °F - 34.0 °F 22% 29.77 in 10.0 mi Calm Calm - N/A   Clear
8:53 PM 73.0 °F - 37.9 °F 28% 29.78 in 10.0 mi Calm Calm - N/A   Partly Cloudy
9:53 PM 73.0 °F - 36.0 °F 26% 29.78 in 10.0 mi Calm Calm - N/A   Clear
10:53 PM 66.9 °F - 36.0 °F 32% 29.80 in 10.0 mi NE 4.6 mph - N/A   Clear
11:53 PM 60.1 °F - 36.0 °F 41% 29.82 in 10.0 mi Calm Calm - N/A   Clear